Flag for Brazil Weather past 2 weeks in Pirassununga, São Paulo, Brazil

Now
55 °F

Fog.


Feels Like: 55 °F
Forecast: 58 / 91 °F
Wind: 2 mph from Southwest

Location: Pirassununga Airport

Current Time: Sep 4, 2015 at 8:27:57 AM

Latest Report: Sep 4, 2015 at 7:00 AM


Visibility: 2 mi

Pressure: 30.01 "Hg (27.83 "Hg at 632m altitude)

Humidity: 94%

Dew point: 54 °F

Location of PirassunungaLocation

Historic Weather in Pirassununga — Graph

°F

Pirassununga temperature yesterday

Maximum temperature yesterday: 93 °F (at 3:00 PM)
Minimum temperature yesterday: 54 °F (at 6:00 AM)
Average temperature yesterday: 76 °F

Past Weeks' High & Low Weather Summary

 TemperatureHumidityPressure
High93 °F (Aug 31, 2:00 PM)100% (Aug 22, 7:00 AM)30.24 "Hg (Aug 22, 7:00 AM)
Low46 °F (Aug 23, 7:00 AM)14% (Aug 23, 4:00 PM)29.92 "Hg (Aug 23, 4:00 PM)
Average71 °F59%30.09 "Hg
* Reported Aug 20 7:00 AM — Sep 4 7:00 AM, Pirassununga, Weather by CustomWeather, © 2015

Note: Actual official high and low records may vary slightly from our data, if they occured in-between our weather recording intervals... More about our weather records

Advertising

Pirassununga weather history for previous 24 hours

 ConditionsComfort  
Time TempWeatherWind HumidityBarometerVisibility
7:00 AM
Fri, Sep 4
55 °FFog.2 mph94%30.01 "Hg2 mi
6:00 AM54 °FFog.3 mph94%29.98 "Hg2 mi
11:00 PM
Thu, Sep 3
66 °FClear.7 mph73%30.01 "Hg10 mi
10:00 PM66 °FClear.3 mph73%30.01 "Hg10 mi
9:00 PM70 °FClear.No wind64%30.01 "Hg10 mi
8:00 PM75 °FClear.5 mph54%29.98 "Hg10 mi
7:00 PM79 °FClear.7 mph48%29.95 "Hg10 mi
6:00 PM82 °FClear.8 mph40%29.95 "Hg10 mi
5:00 PM88 °FPassing clouds.9 mph31%29.92 "HgN/A
4:00 PM91 °FScattered clouds.20 mph23%29.92 "HgN/A
3:00 PM93 °FScattered clouds.17 mph21%29.92 "HgN/A
2:00 PM91 °FPassing clouds.8 mph28%29.95 "HgN/A
1:00 PM88 °FSunny.5 mph31%29.98 "Hg10 mi
12:00 PM86 °FSunny.5 mph38%30.04 "Hg10 mi
11:00 AM81 °FSunny.5 mph45%30.04 "Hg10 mi
10:00 AM73 °FSunny.2 mph57%30.07 "Hg10 mi
9:00 AM66 °FSunny.6 mph73%30.09 "Hg10 mi
8:00 AM61 °FFog.6 mph83%30.09 "Hg3 mi
Weather by CustomWeather, © 2015

See weather overviewHow to use our weather pages